VTK601 USSS-URMM

Flight info

Callsign VTK601
Flight time 2h 38m
Altitude 38000
Route MIKUS6K MIKUS T764 GITEK T691 UROBO R807 NIRGA A835 DEPSO DEPSO5B
Aircraft B737/M-SDE2E3FGHIRWXY/LB1

Departure

Time 2026-05-07 05:12
Airport Koltsovo Airport (USSS)

Arrival

Time 2026-05-07 07:50
Airport Mineralnye Vody Airport (URMM)
Time Latitude Longitude Altitude Speed Heading
2026-05-07 04:58 56.74937 60.80678 779 ft 0 kts
2026-05-07 05:05 56.74934 60.80678 779 ft 2 kts
2026-05-07 05:06 56.74918 60.80678 779 ft 2 kts 360°
2026-05-07 05:06 56.74893 60.80678 779 ft 4 kts 360°
2026-05-07 05:06 56.74865 60.80674 779 ft 4 kts 30°
2026-05-07 05:06 56.74850 60.80634 779 ft 4 kts 92°
2026-05-07 05:07 56.74854 60.80583 779 ft 3 kts 93°
2026-05-07 05:08 56.74854 60.80584 779 ft 1 kts 93°
2026-05-07 05:08 56.74830 60.80635 778 ft 9 kts 155°
2026-05-07 05:08 56.74753 60.80649 778 ft 14 kts 178°
2026-05-07 05:08 56.74669 60.80716 778 ft 14 kts 118°
2026-05-07 05:09 56.74660 60.80885 778 ft 13 kts 90°
2026-05-07 05:09 56.74661 60.81064 778 ft 16 kts 90°
2026-05-07 05:09 56.74660 60.81283 778 ft 19 kts 90°
2026-05-07 05:09 56.74660 60.81530 778 ft 20 kts 90°
2026-05-07 05:10 56.74659 60.81773 778 ft 19 kts 90°
2026-05-07 05:10 56.74659 60.82008 778 ft 18 kts 90°
2026-05-07 05:10 56.74627 60.82189 778 ft 15 kts 153°
2026-05-07 05:10 56.74524 60.82199 778 ft 15 kts 183°
2026-05-07 05:11 56.74474 60.82065 778 ft 14 kts 270°
2026-05-07 05:11 56.74474 60.81738 778 ft 55 kts 270°
2026-05-07 05:11 56.74476 60.80629 778 ft 118 kts 270°
2026-05-07 05:11 56.74479 60.78821 829 ft 162 kts 271°
2026-05-07 05:12 56.74491 60.76640 1266 ft 179 kts 271°
2026-05-07 05:12 56.74501 60.74371 2057 ft 174 kts 269°
2026-05-07 05:12 56.74502 60.72233 2898 ft 172 kts 270°
2026-05-07 05:12 56.74501 60.69882 3186 ft 198 kts 271°
2026-05-07 05:13 56.74502 60.67202 3403 ft 226 kts 271°
2026-05-07 05:13 56.74503 60.64177 3774 ft 249 kts 270°
2026-05-07 05:13 56.74504 60.60964 4494 ft 255 kts 270°
2026-05-07 05:13 56.74504 60.57700 5231 ft 261 kts 270°
2026-05-07 05:14 56.74444 60.54394 6080 ft 261 kts 259°
2026-05-07 05:14 56.73707 60.51378 6905 ft 265 kts 233°
2026-05-07 05:14 56.72327 60.49087 7506 ft 273 kts 213°
2026-05-07 05:14 56.70651 60.47412 7862 ft 277 kts 209°
2026-05-07 05:15 56.68920 60.45819 7863 ft 279 kts 208°
2026-05-07 05:15 56.67187 60.44247 7861 ft 276 kts 208°
2026-05-07 05:15 56.65471 60.42685 7873 ft 275 kts 209°
2026-05-07 05:15 56.63762 60.41118 7883 ft 275 kts 209°
2026-05-07 05:16 56.62055 60.39542 7883 ft 275 kts 209°
2026-05-07 05:16 56.60371 60.37981 7881 ft 276 kts 209°
2026-05-07 05:16 56.58654 60.36387 7853 ft 278 kts 209°
2026-05-07 05:16 56.56940 60.34795 7870 ft 277 kts 209°
2026-05-07 05:17 56.55222 60.33197 7858 ft 278 kts 209°
2026-05-07 05:17 56.53498 60.31596 7862 ft 279 kts 209°
2026-05-07 05:17 56.51767 60.29985 7861 ft 281 kts 208°
2026-05-07 05:17 56.50024 60.28372 7876 ft 281 kts 208°
2026-05-07 05:18 56.48277 60.26752 7884 ft 283 kts 208°
2026-05-07 05:18 56.46519 60.25119 7876 ft 285 kts 208°
2026-05-07 05:18 56.44752 60.23485 7872 ft 285 kts 209°
2026-05-07 05:18 56.42985 60.21854 7870 ft 285 kts 209°
2026-05-07 05:19 56.41223 60.20222 7877 ft 284 kts 209°
2026-05-07 05:19 56.39593 60.18250 7908 ft 284 kts 224°
2026-05-07 05:19 56.38159 60.15745 8633 ft 286 kts 226°
2026-05-07 05:19 56.36755 60.13225 9678 ft 285 kts 227°
2026-05-07 05:20 56.35331 60.10673 10374 ft 296 kts 226°
2026-05-07 05:20 56.33799 60.07942 10586 ft 323 kts 226°
2026-05-07 05:20 56.32179 60.05076 11060 ft 337 kts 226°
2026-05-07 05:20 56.30486 60.02108 11817 ft 342 kts 225°
2026-05-07 05:21 56.28770 59.99116 12645 ft 345 kts 225°
2026-05-07 05:21 56.25265 59.93034 14208 ft 354 kts 225°
2026-05-07 05:21 56.23481 59.89947 15001 ft 358 kts 226°
2026-05-07 05:22 56.21678 59.86831 15797 ft 362 kts 225°
2026-05-07 05:22 56.19854 59.83681 16576 ft 366 kts 225°
2026-05-07 05:22 56.18006 59.80496 17326 ft 371 kts 225°
2026-05-07 05:22 56.16131 59.77267 18094 ft 375 kts 225°
2026-05-07 05:23 56.14237 59.74012 18768 ft 380 kts 225°
2026-05-07 05:23 56.12321 59.70724 19455 ft 383 kts 225°
2026-05-07 05:23 56.10390 59.67413 20156 ft 386 kts 225°
2026-05-07 05:23 56.08442 59.64079 20787 ft 391 kts 225°
2026-05-07 05:24 56.06455 59.60684 21346 ft 398 kts 225°
2026-05-07 05:24 56.04580 59.57041 21994 ft 399 kts 238°
2026-05-07 05:24 56.03242 59.52698 22721 ft 399 kts 244°
2026-05-07 05:24 56.01981 59.48252 23354 ft 403 kts 245°
2026-05-07 05:25 56.00708 59.43745 23880 ft 407 kts 244°
2026-05-07 05:25 55.99439 59.39292 24437 ft 409 kts 244°
2026-05-07 05:25 55.98133 59.34766 25034 ft 410 kts 244°
2026-05-07 05:25 55.96813 59.30237 25578 ft 413 kts 244°
2026-05-07 05:26 55.95477 59.25681 26089 ft 416 kts 243°
2026-05-07 05:26 55.94126 59.21101 26588 ft 419 kts 243°
2026-05-07 05:26 55.92765 59.16496 27110 ft 420 kts 243°
2026-05-07 05:26 55.91397 59.11879 27651 ft 422 kts 243°
2026-05-07 05:27 55.90020 59.07242 28082 ft 425 kts 243°
2026-05-07 05:27 55.88629 59.02567 28524 ft 428 kts 243°
2026-05-07 05:27 55.87230 58.97873 28967 ft 431 kts 243°
2026-05-07 05:27 55.85821 58.93151 29433 ft 433 kts 243°
2026-05-07 05:28 55.84405 58.88415 29894 ft 435 kts 243°
2026-05-07 05:28 55.82977 58.83646 30235 ft 437 kts 243°
2026-05-07 05:28 55.81538 58.78853 30559 ft 440 kts 243°
2026-05-07 05:28 55.80583 58.75679 30828 ft 440 kts 243°
2026-05-07 05:29 55.79139 58.70900 31351 ft 437 kts 242°
2026-05-07 05:29 55.77702 58.66163 31869 ft 434 kts 242°
2026-05-07 05:29 55.76268 58.61450 32273 ft 434 kts 242°
2026-05-07 05:29 55.74829 58.56729 32626 ft 435 kts 242°
2026-05-07 05:30 55.73388 58.52009 32994 ft 435 kts 242°
2026-05-07 05:30 55.71952 58.47316 33491 ft 432 kts 242°
2026-05-07 05:30 55.70523 58.42650 33973 ft 429 kts 242°
2026-05-07 05:30 55.69098 58.38003 34242 ft 430 kts 242°
2026-05-07 05:31 55.67667 58.33343 34465 ft 432 kts 242°
2026-05-07 05:31 55.66231 58.28675 34752 ft 431 kts 242°
2026-05-07 05:31 55.64794 58.24017 35104 ft 430 kts 242°
2026-05-07 05:31 55.63361 58.19384 35424 ft 429 kts 242°
2026-05-07 05:32 55.61925 58.14750 35635 ft 431 kts 242°
2026-05-07 05:32 55.60480 58.10089 35857 ft 431 kts 242°
2026-05-07 05:32 55.59037 58.05445 36161 ft 430 kts 242°
2026-05-07 05:32 55.57597 58.00819 36477 ft 429 kts 242°
2026-05-07 05:33 55.56156 57.96202 36730 ft 429 kts 242°
2026-05-07 05:33 55.54714 57.91595 36961 ft 429 kts 242°
2026-05-07 05:33 55.53267 57.86986 37221 ft 429 kts 242°
2026-05-07 05:33 55.51821 57.82386 37502 ft 428 kts 242°
2026-05-07 05:34 55.50376 57.77796 37743 ft 427 kts 242°
2026-05-07 05:34 55.48931 57.73210 37899 ft 429 kts 241°
2026-05-07 05:34 55.47472 57.68588 37881 ft 433 kts 241°
2026-05-07 05:35 55.44545 57.59353 37887 ft 429 kts 241°
2026-05-07 05:35 55.41640 57.50212 37902 ft 426 kts 241°
2026-05-07 05:36 55.38765 57.41209 37905 ft 424 kts 241°
2026-05-07 05:36 55.35877 57.32202 37893 ft 423 kts 241°
2026-05-07 05:37 55.32988 57.23207 37908 ft 424 kts 241°
2026-05-07 05:37 55.30030 57.14044 37921 ft 433 kts 241°
2026-05-07 05:38 55.27043 57.04851 37920 ft 434 kts 241°
2026-05-07 05:38 55.24064 56.95717 37913 ft 434 kts 240°
2026-05-07 05:39 55.21064 56.86547 37909 ft 434 kts 240°
2026-05-07 05:39 55.18062 56.77404 37911 ft 433 kts 240°
2026-05-07 05:40 55.15057 56.68284 37918 ft 432 kts 240°
2026-05-07 05:40 55.12052 56.59197 37912 ft 432 kts 240°
2026-05-07 05:41 55.09045 56.50138 37914 ft 431 kts 240°
2026-05-07 05:41 55.06041 56.41104 37910 ft 430 kts 240°
2026-05-07 05:42 55.03038 56.32087 37915 ft 430 kts 240°
2026-05-07 05:42 55.00050 56.23141 37918 ft 430 kts 240°
2026-05-07 05:43 54.97035 56.14156 37909 ft 430 kts 240°
2026-05-07 05:43 54.94013 56.05179 37917 ft 430 kts 240°
2026-05-07 05:44 54.90986 55.96215 37907 ft 430 kts 240°
2026-05-07 05:44 54.87943 55.87244 37905 ft 431 kts 240°
2026-05-07 05:45 54.84886 55.78295 37915 ft 431 kts 239°
2026-05-07 05:45 54.81812 55.69346 37909 ft 432 kts 239°
2026-05-07 05:46 54.78728 55.60393 37909 ft 433 kts 239°
2026-05-07 05:46 54.75636 55.51444 37907 ft 433 kts 239°
2026-05-07 05:47 54.72530 55.42483 37904 ft 434 kts 239°
2026-05-07 05:47 54.69422 55.33550 37905 ft 434 kts 239°
2026-05-07 05:48 54.66303 55.24611 37906 ft 434 kts 239°
2026-05-07 05:48 54.63182 55.15667 37905 ft 435 kts 239°
2026-05-07 05:49 54.60067 55.06719 37908 ft 435 kts 239°
2026-05-07 05:49 54.56942 54.97775 37911 ft 435 kts 239°
2026-05-07 05:50 54.53797 54.88844 37905 ft 435 kts 239°
2026-05-07 05:50 54.50661 54.80020 37904 ft 435 kts 239°
2026-05-07 05:51 54.47504 54.71156 37900 ft 434 kts 239°
2026-05-07 05:51 54.44343 54.62309 37895 ft 434 kts 238°
2026-05-07 05:52 54.41177 54.53467 37905 ft 434 kts 238°
2026-05-07 05:52 54.38006 54.44652 37902 ft 434 kts 238°
2026-05-07 05:53 54.34821 54.35838 37907 ft 435 kts 238°
2026-05-07 05:53 54.31632 54.27036 37904 ft 435 kts 238°
2026-05-07 05:54 54.28433 54.18241 37900 ft 435 kts 238°
2026-05-07 05:54 54.25224 54.09449 37908 ft 436 kts 238°
2026-05-07 05:55 54.22006 54.00657 37900 ft 436 kts 238°
2026-05-07 05:55 54.18782 53.91881 37912 ft 436 kts 238°
2026-05-07 05:56 54.15549 53.83112 37902 ft 437 kts 238°
2026-05-07 05:56 54.12308 53.74348 37912 ft 437 kts 238°
2026-05-07 05:57 54.09063 53.65602 37913 ft 437 kts 238°
2026-05-07 05:57 54.05802 53.56854 37907 ft 437 kts 238°
2026-05-07 05:58 54.02532 53.48125 37914 ft 437 kts 238°
2026-05-07 05:58 53.99278 53.39457 37907 ft 438 kts 237°
2026-05-07 05:59 53.95994 53.30740 37908 ft 438 kts 237°
2026-05-07 05:59 53.92703 53.22031 37909 ft 438 kts 237°
2026-05-07 06:00 53.89407 53.13341 37915 ft 438 kts 237°
2026-05-07 06:00 53.86104 53.04654 37911 ft 438 kts 237°
2026-05-07 06:01 53.82791 52.95978 37918 ft 439 kts 237°
2026-05-07 06:01 53.79399 52.87398 37908 ft 439 kts 236°
2026-05-07 06:02 53.75953 52.78876 37910 ft 439 kts 236°
2026-05-07 06:02 53.72511 52.70363 37905 ft 438 kts 236°
2026-05-07 06:03 53.69073 52.61864 37906 ft 438 kts 236°
2026-05-07 06:03 53.65633 52.53383 37913 ft 438 kts 236°
2026-05-07 06:04 53.62190 52.44917 37906 ft 438 kts 236°
2026-05-07 06:04 53.58740 52.36463 37911 ft 438 kts 235°
2026-05-07 06:05 53.55283 52.28018 37903 ft 439 kts 235°
2026-05-07 06:05 53.51814 52.19574 37906 ft 438 kts 235°
2026-05-07 06:06 53.48343 52.11154 37911 ft 439 kts 235°
2026-05-07 06:06 53.44864 52.02742 37911 ft 439 kts 235°
2026-05-07 06:07 53.41378 51.94341 37908 ft 439 kts 235°
2026-05-07 06:07 53.37880 51.85935 37910 ft 440 kts 235°
2026-05-07 06:08 53.34372 51.77537 37910 ft 440 kts 235°
2026-05-07 06:08 53.30877 51.69200 37910 ft 441 kts 234°
2026-05-07 06:09 53.27348 51.60806 37910 ft 441 kts 234°
2026-05-07 06:09 53.23815 51.52428 37909 ft 441 kts 234°
2026-05-07 06:10 53.20271 51.44048 37905 ft 442 kts 234°
2026-05-07 06:10 53.16723 51.35692 37902 ft 442 kts 234°
2026-05-07 06:11 53.13173 51.27342 37901 ft 442 kts 234°
2026-05-07 06:11 53.09611 51.18990 37907 ft 442 kts 234°
2026-05-07 06:12 53.06044 51.10659 37904 ft 442 kts 234°
2026-05-07 06:12 53.02470 51.02332 37905 ft 442 kts 234°
2026-05-07 06:13 52.98897 50.94036 37905 ft 442 kts 234°
2026-05-07 06:13 52.95312 50.85741 37903 ft 442 kts 234°
2026-05-07 06:14 52.91724 50.77458 37900 ft 442 kts 234°
2026-05-07 06:14 52.88132 50.69196 37901 ft 442 kts 234°
2026-05-07 06:15 52.85142 50.62343 37902 ft 442 kts 234°
2026-05-07 06:15 52.81546 50.54113 37900 ft 441 kts 234°
2026-05-07 06:16 52.77940 50.45899 37901 ft 441 kts 233°
2026-05-07 06:16 52.74325 50.37707 37901 ft 441 kts 233°
2026-05-07 06:17 52.70701 50.29521 37898 ft 442 kts 233°
2026-05-07 06:17 52.67064 50.21356 37904 ft 442 kts 233°
2026-05-07 06:18 52.63419 50.13196 37901 ft 442 kts 233°
2026-05-07 06:18 52.59770 50.05039 37902 ft 443 kts 233°
2026-05-07 06:19 52.56106 49.96890 37904 ft 443 kts 232°
2026-05-07 06:19 52.52232 49.89009 37904 ft 444 kts 230°
2026-05-07 06:20 52.48261 49.81238 37911 ft 444 kts 230°
2026-05-07 06:20 52.44314 49.73437 37904 ft 444 kts 230°
2026-05-07 06:21 52.40383 49.65627 37903 ft 444 kts 230°
2026-05-07 06:21 52.36448 49.57824 37901 ft 444 kts 230°
2026-05-07 06:22 52.32536 49.50091 37903 ft 444 kts 230°
2026-05-07 06:22 52.26614 49.38455 37896 ft 444 kts 230°
2026-05-07 06:23 52.22651 49.30730 37908 ft 444 kts 229°
2026-05-07 06:23 52.18681 49.23013 37905 ft 444 kts 230°
2026-05-07 06:24 52.14711 49.15308 37906 ft 444 kts 230°
2026-05-07 06:24 52.10743 49.07632 37910 ft 443 kts 229°
2026-05-07 06:25 52.06771 48.99952 37901 ft 444 kts 230°
2026-05-07 06:25 52.02823 48.92247 37907 ft 444 kts 230°
2026-05-07 06:26 51.98874 48.84560 37900 ft 444 kts 230°
2026-05-07 06:26 51.94894 48.76891 37911 ft 444 kts 229°
2026-05-07 06:27 51.90890 48.69278 37900 ft 444 kts 229°
2026-05-07 06:27 51.86875 48.61667 37911 ft 444 kts 229°
2026-05-07 06:28 51.82858 48.54059 37907 ft 445 kts 229°
2026-05-07 06:28 51.78836 48.46462 37910 ft 445 kts 229°
2026-05-07 06:29 51.74805 48.38863 37910 ft 446 kts 229°
2026-05-07 06:29 51.70763 48.31276 37901 ft 446 kts 229°
2026-05-07 06:30 51.66739 48.23743 37908 ft 446 kts 229°
2026-05-07 06:30 51.62681 48.16164 37901 ft 447 kts 229°
2026-05-07 06:31 51.58616 48.08592 37909 ft 447 kts 229°
2026-05-07 06:31 51.54549 48.01038 37898 ft 447 kts 229°
2026-05-07 06:32 51.50476 47.93497 37907 ft 447 kts 229°
2026-05-07 06:32 51.46396 47.85966 37901 ft 447 kts 229°
2026-05-07 06:33 51.42311 47.78445 37901 ft 447 kts 229°
2026-05-07 06:33 51.38223 47.70940 37902 ft 447 kts 229°
2026-05-07 06:34 51.34130 47.63448 37903 ft 447 kts 229°
2026-05-07 06:34 51.30033 47.55978 37907 ft 446 kts 228°
2026-05-07 06:35 51.25935 47.48524 37897 ft 446 kts 228°
2026-05-07 06:35 51.21836 47.41089 37909 ft 446 kts 228°
2026-05-07 06:36 51.17735 47.33671 37901 ft 446 kts 228°
2026-05-07 06:36 51.13628 47.26266 37914 ft 446 kts 228°
2026-05-07 06:37 51.09520 47.18882 37900 ft 446 kts 228°
2026-05-07 06:37 51.05397 47.11490 37910 ft 446 kts 228°
2026-05-07 06:38 51.01271 47.04114 37905 ft 446 kts 228°
2026-05-07 06:38 50.97168 46.96800 37908 ft 446 kts 228°
2026-05-07 06:39 50.93041 46.89464 37910 ft 446 kts 228°
2026-05-07 06:39 50.88899 46.82127 37907 ft 447 kts 228°
2026-05-07 06:40 50.84753 46.74798 37919 ft 447 kts 228°
2026-05-07 06:40 50.80602 46.67484 37910 ft 447 kts 228°
2026-05-07 06:41 50.76440 46.60170 37916 ft 447 kts 228°
2026-05-07 06:41 50.72277 46.52874 37906 ft 448 kts 228°
2026-05-07 06:42 50.68101 46.45580 37919 ft 448 kts 228°
2026-05-07 06:42 50.63915 46.38288 37912 ft 448 kts 227°
2026-05-07 06:43 50.59763 46.31070 37914 ft 448 kts 227°
2026-05-07 06:43 50.55586 46.23799 37911 ft 448 kts 228°
2026-05-07 06:44 50.51473 46.16450 37919 ft 448 kts 229°
2026-05-07 06:44 50.47367 46.09091 37917 ft 448 kts 229°
2026-05-07 06:45 50.43249 46.01752 37915 ft 448 kts 229°
2026-05-07 06:45 50.39122 45.94440 37915 ft 448 kts 229°
2026-05-07 06:46 50.34990 45.87132 37911 ft 447 kts 229°
2026-05-07 06:46 50.30861 45.79854 37914 ft 447 kts 229°
2026-05-07 06:47 50.26724 45.72587 37913 ft 448 kts 229°
2026-05-07 06:47 50.22578 45.65320 37927 ft 448 kts 228°
2026-05-07 06:48 50.18422 45.58051 37903 ft 449 kts 229°
2026-05-07 06:48 50.14253 45.50789 37915 ft 449 kts 228°
2026-05-07 06:49 50.10080 45.43534 37907 ft 450 kts 228°
2026-05-07 06:49 50.05893 45.36276 37914 ft 450 kts 228°
2026-05-07 06:50 50.01242 45.29913 37939 ft 450 kts 211°
2026-05-07 06:50 49.95480 45.26201 37942 ft 449 kts 195°
2026-05-07 06:51 49.89446 45.23663 37932 ft 449 kts 195°
2026-05-07 06:51 49.83410 45.21092 37917 ft 450 kts 195°
2026-05-07 06:52 49.77388 45.18456 37925 ft 450 kts 195°
2026-05-07 06:52 49.71367 45.15807 37935 ft 450 kts 195°
2026-05-07 06:53 49.65346 45.13181 37927 ft 450 kts 195°
2026-05-07 06:53 49.59328 45.10578 37924 ft 449 kts 195°
2026-05-07 06:54 49.53307 45.07983 37931 ft 449 kts 195°
2026-05-07 06:54 49.47297 45.05396 37931 ft 449 kts 195°
2026-05-07 06:55 49.41289 45.02815 37921 ft 448 kts 195°
2026-05-07 06:55 49.35278 45.00239 37929 ft 448 kts 195°
2026-05-07 06:56 49.29280 44.97676 37930 ft 447 kts 195°
2026-05-07 06:56 49.23323 44.95137 37923 ft 447 kts 195°
2026-05-07 06:57 49.17332 44.92590 37926 ft 447 kts 195°
2026-05-07 06:57 49.11338 44.90047 37928 ft 447 kts 195°
2026-05-07 06:58 49.05349 44.87512 37936 ft 446 kts 195°
2026-05-07 06:58 48.99357 44.84983 37938 ft 447 kts 195°
2026-05-07 06:59 48.93362 44.82457 37937 ft 447 kts 195°
2026-05-07 06:59 48.87362 44.79936 37943 ft 447 kts 195°
2026-05-07 07:00 48.81375 44.77366 37944 ft 447 kts 197°
2026-05-07 07:00 48.75461 44.74387 37954 ft 448 kts 198°
2026-05-07 07:01 48.69553 44.71391 37957 ft 448 kts 198°
2026-05-07 07:01 48.64635 44.68963 37948 ft 448 kts 197°
2026-05-07 07:02 48.58713 44.66013 37949 ft 448 kts 198°
2026-05-07 07:02 48.51796 44.62548 37953 ft 448 kts 198°
2026-05-07 07:03 48.46872 44.60112 37946 ft 448 kts 197°
2026-05-07 07:03 48.40946 44.57216 37942 ft 448 kts 197°
2026-05-07 07:04 48.35013 44.54327 37942 ft 448 kts 197°
2026-05-07 07:04 48.29085 44.51441 37948 ft 448 kts 197°
2026-05-07 07:05 48.23154 44.48557 37963 ft 448 kts 197°
2026-05-07 07:05 48.17221 44.45680 37963 ft 448 kts 197°
2026-05-07 07:06 48.11285 44.42807 37972 ft 448 kts 197°
2026-05-07 07:06 48.05340 44.39936 37975 ft 449 kts 197°
2026-05-07 07:07 47.99384 44.37067 37964 ft 450 kts 197°
2026-05-07 07:07 47.93425 44.34207 37967 ft 451 kts 196°
2026-05-07 07:08 47.87409 44.31826 37975 ft 451 kts 192°
2026-05-07 07:08 47.81303 44.29711 37984 ft 451 kts 192°
2026-05-07 07:09 47.75194 44.27585 37973 ft 451 kts 192°
2026-05-07 07:09 47.69083 44.25418 37983 ft 452 kts 192°
2026-05-07 07:10 47.62971 44.23236 37992 ft 451 kts 192°
2026-05-07 07:10 47.56868 44.21059 37996 ft 451 kts 192°
2026-05-07 07:11 47.50763 44.18887 37992 ft 451 kts 192°
2026-05-07 07:11 47.44660 44.16723 37990 ft 451 kts 192°
2026-05-07 07:12 47.38557 44.14568 38012 ft 451 kts 192°
2026-05-07 07:12 47.32445 44.12410 38016 ft 451 kts 192°
2026-05-07 07:13 47.26345 44.10262 37997 ft 451 kts 192°
2026-05-07 07:13 47.20234 44.08115 38007 ft 451 kts 192°
2026-05-07 07:14 47.14163 44.05989 38033 ft 451 kts 192°
2026-05-07 07:14 47.08056 44.03854 38028 ft 451 kts 192°
2026-05-07 07:15 47.01943 44.01722 38014 ft 452 kts 192°
2026-05-07 07:15 46.95829 43.99595 38012 ft 451 kts 192°
2026-05-07 07:16 46.89716 43.97472 38020 ft 451 kts 192°
2026-05-07 07:16 46.83614 43.95359 38031 ft 450 kts 192°
2026-05-07 07:17 46.77518 43.93254 38022 ft 450 kts 192°
2026-05-07 07:17 46.71468 43.91166 38024 ft 450 kts 192°
2026-05-07 07:18 46.65389 43.89073 38034 ft 449 kts 192°
2026-05-07 07:18 46.59319 43.86989 38033 ft 447 kts 192°
2026-05-07 07:19 46.53265 43.84913 38032 ft 446 kts 192°
2026-05-07 07:19 46.47221 43.82856 38035 ft 446 kts 191°
2026-05-07 07:20 46.41179 43.80829 38058 ft 445 kts 192°
2026-05-07 07:20 46.35146 43.78810 38062 ft 445 kts 192°
2026-05-07 07:21 46.30498 43.77252 38053 ft 444 kts 191°
2026-05-07 07:21 46.24474 43.75238 38059 ft 444 kts 191°
2026-05-07 07:22 46.18448 43.73229 37678 ft 448 kts 192°
2026-05-07 07:22 46.15412 43.72218 37189 ft 447 kts 191°
2026-05-07 07:22 46.12432 43.71227 36756 ft 442 kts 191°
2026-05-07 07:23 46.09451 43.70234 36341 ft 438 kts 191°
2026-05-07 07:23 46.06490 43.69250 35929 ft 434 kts 191°
2026-05-07 07:23 46.03559 43.68281 35509 ft 431 kts 191°
2026-05-07 07:23 46.00649 43.67316 35093 ft 428 kts 191°
2026-05-07 07:24 45.97739 43.66402 34577 ft 429 kts 189°
2026-05-07 07:24 45.94814 43.65565 34142 ft 427 kts 188°
2026-05-07 07:24 45.91904 43.64758 33640 ft 426 kts 188°
2026-05-07 07:24 45.89006 43.63957 33213 ft 422 kts 188°
2026-05-07 07:25 45.83286 43.62359 32384 ft 415 kts 188°
2026-05-07 07:25 45.80460 43.61563 31992 ft 412 kts 188°
2026-05-07 07:25 45.77663 43.60772 31620 ft 409 kts 188°
2026-05-07 07:26 45.74878 43.59984 31231 ft 406 kts 188°
2026-05-07 07:26 45.72120 43.59205 30850 ft 403 kts 187°
2026-05-07 07:26 45.69375 43.58431 30485 ft 401 kts 187°
2026-05-07 07:26 45.66647 43.57661 30116 ft 398 kts 187°
2026-05-07 07:27 45.63941 43.56899 29669 ft 395 kts 187°
2026-05-07 07:27 45.61259 43.56145 29250 ft 391 kts 187°
2026-05-07 07:27 45.58600 43.55399 28849 ft 387 kts 188°
2026-05-07 07:27 45.55971 43.54661 28450 ft 383 kts 188°
2026-05-07 07:28 45.53362 43.53929 28041 ft 380 kts 188°
2026-05-07 07:28 45.50775 43.53204 27656 ft 377 kts 188°
2026-05-07 07:28 45.48211 43.52487 27254 ft 374 kts 188°
2026-05-07 07:28 45.45668 43.51777 26865 ft 371 kts 188°
2026-05-07 07:29 45.43173 43.51083 26488 ft 368 kts 188°
2026-05-07 07:29 45.40664 43.50386 26111 ft 366 kts 188°
2026-05-07 07:29 45.38173 43.49694 25726 ft 363 kts 188°
2026-05-07 07:29 45.35704 43.49010 25349 ft 361 kts 188°
2026-05-07 07:30 45.33248 43.48331 24965 ft 358 kts 188°
2026-05-07 07:30 45.30808 43.47655 24588 ft 356 kts 188°
2026-05-07 07:30 45.28379 43.46982 24206 ft 355 kts 188°
2026-05-07 07:30 45.25956 43.46312 23826 ft 353 kts 189°
2026-05-07 07:31 45.23548 43.45646 23387 ft 352 kts 189°
2026-05-07 07:31 45.21149 43.44983 22948 ft 350 kts 188°
2026-05-07 07:31 45.18768 43.44326 22535 ft 347 kts 188°
2026-05-07 07:31 45.16409 43.43677 22152 ft 344 kts 188°
2026-05-07 07:32 45.14063 43.43030 21761 ft 341 kts 188°
2026-05-07 07:32 45.11741 43.42391 21375 ft 339 kts 188°
2026-05-07 07:32 45.09425 43.41755 21001 ft 337 kts 188°
2026-05-07 07:32 45.07113 43.41291 20617 ft 334 kts 182°
2026-05-07 07:33 45.04804 43.41100 20223 ft 332 kts 179°
2026-05-07 07:33 45.02499 43.40984 19856 ft 330 kts 179°
2026-05-07 07:33 45.00210 43.40879 19496 ft 328 kts 180°
2026-05-07 07:33 44.97932 43.40766 19120 ft 327 kts 180°
2026-05-07 07:34 44.95669 43.40643 18758 ft 325 kts 180°
2026-05-07 07:34 44.93405 43.40511 18346 ft 325 kts 180°
2026-05-07 07:34 44.91149 43.40376 17937 ft 324 kts 180°
2026-05-07 07:34 44.88901 43.40238 17548 ft 322 kts 181°
2026-05-07 07:35 44.86670 43.40099 17163 ft 320 kts 181°
2026-05-07 07:35 44.84452 43.39959 16777 ft 318 kts 181°
2026-05-07 07:35 44.82248 43.39818 16418 ft 316 kts 181°
2026-05-07 07:35 44.80054 43.39677 16028 ft 315 kts 180°
2026-05-07 07:36 44.77871 43.39538 15666 ft 313 kts 180°
2026-05-07 07:36 44.75702 43.39401 15284 ft 311 kts 180°
2026-05-07 07:36 44.73548 43.39265 14944 ft 309 kts 181°
2026-05-07 07:36 44.71401 43.39129 14572 ft 308 kts 181°
2026-05-07 07:37 44.69295 43.38996 14214 ft 306 kts 181°
2026-05-07 07:37 44.67143 43.38857 13824 ft 305 kts 180°
2026-05-07 07:37 44.65052 43.38724 13422 ft 304 kts 180°
2026-05-07 07:37 44.62941 43.38592 13044 ft 303 kts 180°
2026-05-07 07:38 44.60842 43.38459 12657 ft 301 kts 181°
2026-05-07 07:38 44.58751 43.38329 12293 ft 299 kts 181°
2026-05-07 07:38 44.56681 43.38198 11926 ft 297 kts 181°
2026-05-07 07:38 44.54624 43.38067 11580 ft 294 kts 182°
2026-05-07 07:39 44.52588 43.37943 11225 ft 291 kts 180°
2026-05-07 07:39 44.50598 43.38327 10850 ft 289 kts 163°
2026-05-07 07:39 44.48686 43.39135 10509 ft 286 kts 162°
2026-05-07 07:39 44.46794 43.39968 10221 ft 282 kts 162°
2026-05-07 07:40 44.44949 43.40779 9957 ft 277 kts 162°
2026-05-07 07:40 44.43104 43.41570 9585 ft 276 kts 163°
2026-05-07 07:40 44.41278 43.42345 9240 ft 273 kts 163°
2026-05-07 07:40 44.39459 43.43108 8908 ft 272 kts 162°
2026-05-07 07:41 44.37647 43.43865 8465 ft 271 kts 162°
2026-05-07 07:41 44.35838 43.44618 8129 ft 271 kts 163°
2026-05-07 07:41 44.34029 43.45369 7790 ft 271 kts 162°
2026-05-07 07:41 44.32217 43.46123 7437 ft 272 kts 162°
2026-05-07 07:42 44.30401 43.46872 7102 ft 272 kts 165°
2026-05-07 07:42 44.28530 43.47008 6744 ft 273 kts 195°
2026-05-07 07:42 44.26812 43.45955 6442 ft 269 kts 213°
2026-05-07 07:42 44.25237 43.44543 6091 ft 268 kts 214°
2026-05-07 07:43 44.23683 43.43125 5742 ft 267 kts 215°
2026-05-07 07:43 44.22144 43.41743 5432 ft 266 kts 214°
2026-05-07 07:43 44.20604 43.40371 5274 ft 259 kts 214°
2026-05-07 07:43 44.19105 43.39042 5148 ft 251 kts 214°
2026-05-07 07:44 44.17657 43.37762 5037 ft 242 kts 214°
2026-05-07 07:44 44.16255 43.36529 4906 ft 233 kts 214°
2026-05-07 07:44 44.14913 43.35351 4825 ft 224 kts 216°
2026-05-07 07:44 44.13601 43.34189 4675 ft 223 kts 219°
2026-05-07 07:45 44.12634 43.32620 4520 ft 210 kts 258°
2026-05-07 07:45 44.12678 43.30685 4370 ft 200 kts 299°
2026-05-07 07:45 44.13372 43.29056 4146 ft 193 kts 303°
2026-05-07 07:45 44.14038 43.27483 3886 ft 183 kts 302°
2026-05-07 07:46 44.14680 43.26025 3644 ft 170 kts 303°
2026-05-07 07:46 44.15280 43.24689 3432 ft 156 kts 303°
2026-05-07 07:46 44.15831 43.23471 3229 ft 142 kts 303°
2026-05-07 07:46 44.16340 43.22338 3069 ft 137 kts 303°
2026-05-07 07:47 44.16825 43.21257 2881 ft 126 kts 303°
2026-05-07 07:47 44.17279 43.20254 2703 ft 120 kts 302°
2026-05-07 07:47 44.17720 43.19276 2547 ft 120 kts 301°
2026-05-07 07:47 44.18167 43.18288 2407 ft 124 kts 301°
2026-05-07 07:48 44.18627 43.17266 2234 ft 125 kts 301°
2026-05-07 07:48 44.19092 43.16239 2056 ft 126 kts 301°
2026-05-07 07:48 44.19563 43.15198 1885 ft 130 kts 301°
2026-05-07 07:48 44.20034 43.14152 1725 ft 124 kts 302°
2026-05-07 07:49 44.20483 43.13157 1535 ft 123 kts 299°
2026-05-07 07:49 44.20946 43.12115 1382 ft 129 kts 303°
2026-05-07 07:49 44.20949 43.12108 1382 ft 129 kts 303°
2026-05-07 07:49 44.21156 43.11657 1297 ft 131 kts 303°
2026-05-07 07:50 44.21636 43.10607 1114 ft 128 kts 301°
2026-05-07 07:50 44.22090 43.09589 1064 ft 113 kts 302°
2026-05-07 07:50 44.22462 43.08772 1054 ft 83 kts 303°
2026-05-07 07:50 44.22598 43.08484 1054 ft 6 kts 303°
2026-05-07 07:51 44.22593 43.08496 1052 ft 1 kts 303°